Find Starlink 4296

NORAD ID: 52995 Int'l Des: 2022-076 Owner: SPXS Country: US Constellation: starlink operational
LEOCIRCULAR

Live Position

Loading 3D Globe...

About Starlink 4296

Description loading...

Upcoming Passes

Passes for default location (London). Set your location on the main map for personalized predictions.

Altitude History

Loading altitude history...

Two-Line Element Set

1 52995U 22076K 26127.44801088 -.00000411 00000-0 -77419-5 0 9999
2 52995 53.2166 190.3425 0001296 87.4046 272.7094 15.08836306211719
Epoch: May 7, 2026 • Age: 17 hours

Current Status

Altitude 540.0 km
Velocity 7.60 km/s
Sub-Earth Point 22.46°N, 73.58°E
Launch Date Jul 7, 2022
Age 3.8 years
Type internet

Technical Details

Classification Payload
Mass 297.00 kg
Dry Mass 275.00 kg
Total Mass 297.00 kg
Length 0.20 m
Diameter 2.80 m
Span 9.00 m
Shape Box + pan
Manufacturer SPXS
Bus Type Starlink
Phase Status In Orbit
Owner/State SPXS/US

Most Searched